TimeGMT,TemperatureF,Dew PointF,Humidity,Sea Level PressureIn,VisibilityMPH,Wind Direction,Wind SpeedMPH,Gust SpeedMPH,PrecipitationIn,Events,Conditions,WindDirDegrees,DateUTC
12:50 AM,37.4,35.6,93,29.24,6.2,ESE,6.9,-,N/A,,Scattered Clouds,110,2012-11-04 00:50:00
1:50 AM,39.2,37.4,93,29.24,6.2,ESE,9.2,-,N/A,,Mostly Cloudy,120,2012-11-04 01:50:00
2:50 AM,39.2,37.4,93,29.24,6.2,ESE,9.2,-,N/A,,Mostly Cloudy,110,2012-11-04 02:50:00
3:20 AM,41.0,37.4,87,29.24,6.2,SE,11.5,-,N/A,Rain,Light Rain,140,2012-11-04 03:20:00
3:50 AM,41.0,39.2,93,29.24,6.2,SE,12.7,-,N/A,Rain,Light Rain,130,2012-11-04 03:50:00
4:50 AM,41.0,39.2,93,29.27,6.2,Variable,2.3,-,N/A,Rain,Light Rain,0,2012-11-04 04:50:00
5:50 AM,39.2,37.4,93,29.27,6.2,East,5.8,-,N/A,Rain,Light Rain,80,2012-11-04 05:50:00
6:20 AM,39.2,37.4,93,29.27,6.2,East,3.5,-,N/A,Rain,Light Rain,90,2012-11-04 06:20:00
6:50 AM,39.2,37.4,93,29.27,6.2,East,6.9,-,N/A,,Scattered Clouds,90,2012-11-04 06:50:00
7:20 AM,39.2,37.4,93,29.27,6.2,East,9.2,-,N/A,,Scattered Clouds,90,2012-11-04 07:20:00
7:50 AM,39.2,37.4,93,29.27,6.2,ESE,5.8,-,N/A,,Scattered Clouds,110,2012-11-04 07:50:00
8:20 AM,39.2,37.4,93,29.30,6.2,East,5.8,-,N/A,,Scattered Clouds,100,2012-11-04 08:20:00
8:50 AM,41.0,39.2,93,29.30,6.2,East,6.9,-,N/A,,Scattered Clouds,90,2012-11-04 08:50:00
9:20 AM,41.0,39.2,93,29.30,6.2,East,3.5,-,N/A,,Scattered Clouds,80,2012-11-04 09:20:00
9:50 AM,42.8,39.2,87,29.33,6.2,ESE,8.1,-,N/A,,Partly Cloudy,110,2012-11-04 09:50:00
10:20 AM,42.8,39.2,87,29.33,6.2,ESE,8.1,-,N/A,,Partly Cloudy,110,2012-11-04 10:20:00
10:50 AM,42.8,39.2,87,29.33,6.2,East,6.9,-,N/A,,Partly Cloudy,90,2012-11-04 10:50:00
11:20 AM,42.8,39.2,87,29.33,6.2,East,4.6,-,N/A,,Partly Cloudy,80,2012-11-04 11:20:00
11:50 AM,42.8,39.2,87,29.36,6.2,East,6.9,-,N/A,,Partly Cloudy,90,2012-11-04 11:50:00
12:20 PM,44.6,39.2,81,29.36,6.2,ENE,3.5,-,N/A,,Partly Cloudy,70,2012-11-04 12:20:00
12:50 PM,44.6,39.2,81,29.36,6.2,East,2.3,-,N/A,,Partly Cloudy,90,2012-11-04 12:50:00
1:20 PM,44.6,39.2,81,29.36,6.2,East,5.8,-,N/A,,Partly Cloudy,90,2012-11-04 13:20:00
1:50 PM,44.6,39.2,81,29.36,6.2,ENE,3.5,-,N/A,,Partly Cloudy,70,2012-11-04 13:50:00
2:20 PM,44.6,39.2,81,29.39,6.2,East,4.6,-,N/A,,Partly Cloudy,80,2012-11-04 14:20:00
2:50 PM,46.4,41.0,81,29.39,6.2,East,5.8,-,N/A,,Partly Cloudy,90,2012-11-04 14:50:00
3:20 PM,44.6,39.2,81,29.39,6.2,East,3.5,-,N/A,,Partly Cloudy,80,2012-11-04 15:20:00
3:50 PM,44.6,41.0,87,29.42,6.2,East,3.5,-,N/A,,Partly Cloudy,90,2012-11-04 15:50:00
4:20 PM,44.6,39.2,81,29.42,6.2,NE,4.6,-,N/A,,Partly Cloudy,50,2012-11-04 16:20:00
4:50 PM,42.8,39.2,87,29.44,6.2,NE,5.8,-,N/A,,Partly Cloudy,50,2012-11-04 16:50:00
5:20 PM,42.8,37.4,81,29.44,6.2,NE,9.2,-,N/A,,Partly Cloudy,50,2012-11-04 17:20:00
5:50 PM,41.0,37.4,87,29.44,6.2,NE,9.2,-,N/A,,Partly Cloudy,50,2012-11-04 17:50:00
6:20 PM,39.2,35.6,87,29.47,6.2,NE,8.1,-,N/A,,Partly Cloudy,40,2012-11-04 18:20:00
6:50 PM,37.4,33.8,87,29.50,6.2,NE,6.9,-,N/A,,Partly Cloudy,50,2012-11-04 18:50:00
7:20 PM,37.4,33.8,87,29.50,6.2,ENE,5.8,-,N/A,,Partly Cloudy,60,2012-11-04 19:20:00
7:50 PM,35.6,33.8,93,29.53,6.2,SE,3.5,-,N/A,,Partly Cloudy,130,2012-11-04 19:50:00
8:20 PM,35.6,33.8,93,29.53,6.2,Variable,2.3,-,N/A,,Partly Cloudy,0,2012-11-04 20:20:00
8:50 PM,35.6,32.0,87,29.53,6.2,Calm,Calm,-,N/A,,Partly Cloudy,0,2012-11-04 20:50:00
9:20 PM,33.8,32.0,93,29.56,6.2,Calm,Calm,-,N/A,,Partly Cloudy,0,2012-11-04 21:20:00
9:50 PM,33.8,32.0,93,29.56,6.2,Calm,Calm,-,N/A,,Partly Cloudy,0,2012-11-04 21:50:00
10:20 PM,33.8,33.8,100,29.59,6.2,East,2.3,-,N/A,,Partly Cloudy,90,2012-11-04 22:20:00
10:50 PM,35.6,33.8,93,29.59,6.2,Calm,Calm,-,N/A,,Partly Cloudy,0,2012-11-04 22:50:00
11:20 PM,33.8,32.0,93,29.62,6.2,ESE,5.8,-,N/A,,Partly Cloudy,110,2012-11-04 23:20:00
11:50 PM,33.8,32.0,93,29.62,6.2,East,6.9,-,N/A,,Partly Cloudy,100,2012-11-04 23:50:00